Location: Eastlake (historical)
(39.0077°N, 122.6678°W)
Time: 05:28:36
(UTC+00:00)

H-2A R/B - Pass Details

Date: 25 November 2020
Orbit: 499 x 540 km, 97.3° (Epoch: 22 January)

Event Time Altitude Azimuth Distance (km) Brightness Sun altitude
Rises 13:26:37 0° 18° (NNE) 2,707 6.4 -18.9°
Reaches altitude 10° 13:28:49 10° 24° (NNE) 1,808 5.6 -18.4°
Maximum altitude 13:32:36 47° 99° (E) 719 3.8 -17.7°
Drops below altitude 10° 13:36:19 10° 174° (S) 1,780 5.7 -17.0°
Sets 13:38:28 0° 180° (S) 2,660 6.5 -16.6°
